カタログに戻る

STARLINK-11129

運用中通信VLEO
NORAD 60038·PAYLOAD·🇺🇸 United States

打ち上げ Jun 8, 2024 から Vandenberg Space Force Base

Loading…

次のパス (今後24時間)

TLE

最新Source: CelesTrak SupGP

元期: Sep 14, 2026, 15:10 UTC

1 60038C 24112A   26257.63243056 -.00039928  00000+0 -32895-3 0  2577
2 60038  53.1578  55.1789 0001019  93.7794 212.8204 15.69725762    13

AllMySatでSTARLINK-11129をリアルタイム追跡

Download on the App Store